GFSFLT2_con_3kmhel_075.txt.gz
Helicity
196 194 203 203 183 164 159 143 135 98 101 91 97 89 99 103 96 90 104 123 160 212 204 203 204 148 112
189 189 190 203 190 174 172 157 109 105 104 105 100 84 69 77 81 90 97 117 121 141 223 276 239 251 256
185 193 211 216 218 214 178 147 131 145 125 114 110 81 60 71 84 98 103 105 99 104 140 183 225 255 224
186 191 189 184 192 190 165 138 109 109 96 93 79 86 65 71 78 87 92 105 102 91 113 139 147 160 185
181 188 191 186 159 142 134 103 85 68 55 53 68 72 84 83 79 78 85 95 100 97 97 114 134 148 162
176 172 160 149 135 110 91 67 48 57 63 62 76 76 80 87 85 76 72 80 90 86 86 91 91 101 117
144 122 112 86 97 75 59 66 67 69 60 68 78 75 76 78 75 73 73 77 84 83 88 88 80 85 88
86 86 78 75 62 61 60 81 90 73 63 62 76 73 83 88 75 72 75 70 71 76 85 90 96 105 113
76 85 73 70 75 87 88 77 69 59 51 63 70 79 77 80 108 103 73 69 74 83 91 84 84 91 99
69 80 76 61 68 61 62 68 69 66 40 53 64 59 55 74 71 74 84 102 98 88 86 92 82 87 96
51 54 55 58 43 48 42 45 63 74 36 59 84 87 82 79 67 63 67 67 77 83 84 85 104 97 94
45 44 44 43 42 57 69 71 61 45 55 98 107 65 80 74 70 74 68 70 78 77 84 82 89 90 85
67 59 47 50 71 88 75 82 91 112 81 70 74 76 78 78 84 86 93 88 88 81 76 82 92 88 91
67 67 68 85 109 103 120 104 95 95 77 72 75 75 77 76 84 87 87 102 97 99 90 81 75 73 70
84 103 110 114 125 120 115 102 113 123 106 84 80 76 75 78 73 79 94 97 107 103 98 95 94 80 71
98 102 108 118 114 107 85 125 129 106 96 92 104 103 80 65 59 83 98 110 124 125 128 110 94 104 83
82 110 135 123 117 79 91 100 81 70 66 88 98 100 97 109 104 49 105 125 134 124 121 118 95 112 119

GFSFLT2_con_3kmhel_078.txt.gz
Helicity
210 192 168 194 183 187 180 154 136 136 95 67 97 96 93 113 118 109 113 103 129 168 189 194 73 48 1
195 194 190 192 185 169 166 135 133 104 107 76 119 98 93 103 95 103 110 108 126 146 203 258 274 186 140
196 205 209 211 224 198 194 168 193 163 112 127 125 126 78 83 78 80 101 108 115 130 156 210 305 275 169
207 202 196 182 197 190 182 162 146 118 107 117 95 94 62 54 61 76 90 103 112 127 122 145 188 236 257
213 208 191 193 183 176 176 151 111 83 77 75 53 45 49 52 52 71 79 95 112 122 122 123 139 152 161
181 176 171 167 162 160 165 137 87 61 54 44 51 46 45 55 83 76 65 81 105 110 110 102 105 121 117
145 142 147 119 137 135 115 88 60 61 44 47 45 55 61 60 69 69 69 86 100 93 89 90 90 93 93
102 102 105 102 92 69 54 71 77 64 63 57 54 59 60 62 56 68 76 84 86 84 86 95 106 107 106
94 87 81 67 67 67 68 63 58 56 66 68 60 63 57 60 84 99 76 70 73 79 95 96 95 91 96
87 87 71 70 59 46 49 62 79 69 53 66 63 69 71 49 61 69 80 107 102 87 85 91 86 86 84
58 57 51 54 58 68 67 68 79 79 50 64 76 79 93 85 91 69 64 74 70 72 70 73 85 91 84
62 55 53 54 61 66 66 73 72 65 41 62 80 66 98 118 100 70 72 70 70 66 69 69 66 69 72
67 50 54 60 80 80 81 84 85 82 78 93 103 108 104 92 70 73 78 70 73 74 73 70 71 83 91
76 78 82 82 76 64 88 118 117 110 94 100 104 87 81 63 67 75 76 86 73 75 80 83 76 73 77
95 90 83 85 96 110 131 131 131 122 107 105 123 91 80 80 69 63 70 73 78 82 88 79 77 76 73
88 93 103 116 137 138 144 143 116 108 114 144 144 109 92 70 59 73 75 80 89 90 92 92 88 86 76
122 120 130 134 139 150 153 124 95 81 108 108 88 77 72 84 102 49 94 99 104 111 107 104 100 109 106

GFSFLT2_con_3kmhel_081.txt.gz
Helicity
241 224 186 206 187 185 190 181 169 132 122 119 111 85 113 106 101 104 118 104 123 134 148 177 92 28 27
206 189 200 195 178 173 183 164 165 130 92 74 72 78 112 102 110 95 126 121 126 120 136 208 262 151 53
203 208 207 216 224 222 205 197 184 184 162 119 95 83 97 101 99 88 85 107 113 100 123 166 282 369 260
229 230 219 215 220 210 191 178 178 161 141 120 83 96 82 86 75 76 87 94 97 100 93 134 201 289 326
224 221 208 198 181 180 181 174 143 122 101 81 80 81 70 54 34 34 60 81 83 92 89 112 146 173 223
204 196 173 172 179 183 206 195 150 94 86 81 80 54 57 43 61 30 46 64 75 89 102 131 129 126 146
132 132 146 155 175 167 163 156 126 93 51 62 57 45 61 46 42 50 52 70 85 91 103 120 131 134 125
127 127 124 125 124 117 118 115 131 88 77 58 57 53 52 45 41 53 59 64 73 83 99 114 123 128 126
139 147 120 96 108 128 150 122 82 56 53 65 55 76 45 44 57 67 62 55 64 84 96 98 106 106 108
144 141 120 116 87 74 84 93 82 51 53 90 84 70 58 52 44 36 68 72 101 82 82 86 91 93 86
121 118 102 86 90 103 100 74 102 75 51 87 66 69 74 73 60 67 85 67 64 64 65 73 81 99 103
106 95 92 98 101 102 113 107 88 71 55 77 75 83 92 87 87 94 94 74 68 64 76 79 69 65 66
113 101 121 123 125 108 111 105 105 97 98 78 82 97 90 90 88 98 96 55 79 77 84 72 69 75 84
125 117 162 130 99 87 97 80 113 118 109 98 112 101 100 93 100 77 61 60 70 66 68 70 73 77 79
136 140 128 129 118 103 114 122 121 138 122 113 109 107 122 135 97 68 63 70 81 87 92 79 72 74 77
142 142 132 141 139 125 126 140 156 151 150 145 135 141 138 114 76 78 88 93 93 101 100 87 77 82 85
147 143 146 141 122 141 147 162 164 161 157 148 118 128 110 81 83 42 100 103 101 96 86 86 94 106 99

GFSFLT2_con_3kmhel_084.txt.gz
Helicity
183 199 209 192 169 173 173 174 184 179 150 162 131 131 128 76 72 103 94 92 83 95 131 151 156 73 47
168 181 185 186 181 190 176 159 164 168 164 158 135 125 68 44 95 97 101 110 100 92 156 151 208 178 45
171 192 209 209 212 201 193 188 187 179 186 169 159 109 76 74 100 94 95 97 85 99 100 137 211 353 191
186 186 186 203 208 205 203 184 191 182 167 155 123 99 58 85 90 82 88 76 73 57 78 115 156 230 396
192 194 203 201 173 162 160 171 151 171 158 117 95 79 76 83 65 59 58 59 68 65 81 97 128 143 189
172 177 156 146 156 161 189 193 155 130 148 107 98 73 68 63 45 28 28 37 54 65 70 79 90 107 132
134 135 133 124 163 160 171 158 138 102 108 98 67 56 50 39 23 17 17 38 54 69 80 86 85 94 112
132 113 113 122 152 144 155 155 154 121 77 77 55 53 35 22 20 29 39 45 51 66 86 103 116 116 123
152 124 95 85 116 173 164 188 134 85 56 67 51 64 36 35 28 32 33 35 38 53 60 85 102 117 123
151 131 117 102 117 132 165 146 97 74 37 81 64 57 54 50 46 38 48 22 36 66 92 92 87 86 89
117 126 151 153 155 124 98 70 95 60 30 92 78 74 58 45 29 30 52 68 72 71 77 75 70 73 76
147 137 142 128 128 131 119 90 100 57 50 77 43 56 75 77 54 59 77 75 82 79 87 66 58 64 65
145 133 131 155 166 160 136 130 136 111 96 67 53 66 69 66 68 70 98 63 75 76 71 60 55 63 79
150 157 221 212 165 135 130 112 111 104 100 92 85 94 98 86 89 82 90 77 71 61 62 63 59 57 64
170 202 210 195 155 120 124 116 112 107 116 108 111 110 98 95 98 94 101 84 69 62 72 72 63 55 60
184 209 217 191 155 128 153 143 113 116 125 144 149 143 125 80 84 116 102 82 84 84 91 83 71 60 64
222 211 230 198 124 147 153 150 114 113 144 174 152 164 144 75 107 72 94 87 101 101 91 92 81 84 71

GFSFLT2_con_3kmhel_090.txt.gz
Helicity
198 175 179 188 206 201 188 170 152 114 113 120 128 123 129 136 134 115 88 46 0 41 58 44 60 79 70
199 189 172 177 192 187 170 160 134 110 121 119 129 135 139 143 153 134 97 48 30 64 66 66 97 97 103
174 188 201 206 196 166 146 131 126 127 132 121 144 149 151 147 136 114 82 37 62 72 73 82 110 125 187
187 196 198 194 194 161 130 127 129 143 142 169 164 166 157 135 116 95 48 23 65 73 75 99 116 147 240
222 213 209 212 185 146 150 145 132 143 154 159 174 164 135 106 91 66 33 58 66 73 89 99 95 111 177
235 202 203 200 199 170 186 175 137 139 156 136 150 127 116 108 63 42 45 59 60 68 87 77 51 81 97
210 212 197 189 213 204 187 182 152 143 158 126 142 111 111 85 40 36 37 41 50 43 61 67 45 43 25
194 191 169 191 196 180 170 198 207 167 159 128 123 104 89 53 30 27 32 29 40 40 51 75 67 67 34
167 150 153 145 210 271 240 225 191 150 150 139 113 98 60 43 28 31 39 32 44 50 64 74 67 76 107
254 213 181 154 135 181 231 220 231 188 145 169 142 87 71 46 43 63 66 44 40 60 66 66 73 85 80
211 228 220 183 178 161 166 197 214 181 118 206 138 108 91 81 64 56 54 53 69 66 58 53 62 72 106
227 209 195 178 162 156 146 158 164 131 100 150 101 104 109 84 66 73 49 47 65 40 48 70 88 101 107
221 199 175 165 203 203 202 202 195 182 138 111 114 91 81 49 72 88 86 43 48 68 85 94 97 111 121
203 201 220 228 219 215 194 193 203 182 178 121 104 112 94 74 86 100 95 74 73 77 93 102 101 100 94
210 239 235 222 217 210 202 194 173 167 156 161 142 108 91 102 103 95 107 104 82 114 120 94 76 74 78
214 233 233 226 219 244 233 185 154 150 172 151 178 201 172 95 70 117 131 113 104 110 129 123 95 80 79
233 222 234 217 200 240 234 213 137 132 146 162 171 197 193 126 146 73 138 126 154 153 145 148 116 94 72

GFSFLT2_con_3kmhel_093.txt.gz
Helicity
167 186 216 214 234 217 194 181 173 132 115 112 103 116 127 126 137 137 143 123 99 68 22 22 35 57 59
233 267 229 234 196 191 184 185 168 146 115 95 110 132 135 141 143 143 136 133 115 70 60 63 62 57 73
220 250 246 257 199 184 178 174 167 155 136 111 121 129 132 144 139 141 135 112 99 64 52 66 66 73 98
263 253 261 227 219 204 172 168 152 149 127 135 151 147 138 130 134 132 128 105 72 41 52 63 69 100 90
250 222 235 258 219 198 166 168 141 158 154 172 211 193 154 125 141 122 89 62 29 24 48 45 75 94 81
282 223 234 235 213 208 197 199 162 158 174 152 172 153 148 152 131 91 58 33 22 40 37 47 60 85 97
239 249 279 215 222 221 225 211 173 157 186 153 167 127 148 141 103 79 55 25 45 35 25 41 49 67 112
194 232 188 170 184 207 199 230 234 200 216 160 159 141 162 142 115 87 45 31 22 20 22 43 68 100 117
179 170 169 131 164 258 264 250 222 183 164 175 157 170 152 132 109 78 47 30 15 27 26 49 86 117 157
227 180 151 153 132 198 261 259 265 200 149 197 175 180 138 123 114 95 81 36 17 22 17 50 70 93 131
227 232 250 237 225 234 210 235 252 194 121 228 178 177 175 124 116 107 90 67 44 33 39 59 67 67 97
235 238 238 238 236 212 184 201 207 188 153 210 157 171 163 160 114 108 98 61 53 53 46 55 66 56 71
221 220 219 220 252 248 252 241 235 227 201 189 163 130 133 133 85 95 129 57 51 65 35 34 45 88 110
208 219 257 260 252 269 256 229 229 227 241 216 160 141 137 116 107 101 124 92 68 36 56 59 82 105 105
229 233 215 248 250 231 274 258 220 226 207 211 188 153 112 96 110 98 114 97 68 102 101 82 81 75 92
202 200 194 209 244 225 272 246 221 218 205 187 215 209 156 97 70 113 120 122 104 110 120 120 98 76 81
206 216 199 191 182 215 226 249 242 262 246 204 204 209 187 112 119 77 135 132 147 139 115 116 106 128 121

GFSFLT2_con_3kmhel_096.txt.gz
Helicity
207 160 157 199 253 261 223 180 155 116 123 117 120 119 110 109 128 136 140 115 118 104 76 49 30 16 2
245 219 188 227 241 236 218 216 179 139 135 138 128 105 83 97 128 143 156 134 128 113 78 47 24 30 11
330 299 221 290 283 279 241 198 193 159 145 131 110 98 99 121 132 132 136 140 126 106 83 62 34 33 12
354 405 422 327 314 252 261 186 185 167 145 134 109 106 117 122 115 128 137 131 115 89 72 48 43 39 21
359 297 275 283 216 220 196 198 147 149 154 155 152 163 134 129 130 108 108 96 92 86 58 43 61 52 44
367 351 362 361 262 223 241 247 181 142 162 160 172 164 159 156 116 110 99 96 86 70 50 65 74 64 60
272 303 311 322 320 273 304 317 196 128 157 136 155 138 143 142 108 100 94 90 74 52 66 77 84 84 79
199 222 200 288 198 219 268 262 207 162 167 134 137 124 137 138 108 104 96 77 64 56 63 79 104 121 95
155 207 221 254 320 392 307 314 224 188 150 165 139 157 150 138 133 104 85 81 55 55 83 80 110 116 125
196 168 159 151 115 206 274 248 279 206 159 213 192 149 156 163 166 145 116 53 53 51 57 53 87 91 104
169 210 204 214 197 207 191 256 280 210 132 242 213 204 206 148 130 153 142 114 77 64 42 55 76 77 73
168 210 249 228 230 215 232 271 235 194 158 229 178 205 209 175 140 130 141 110 101 95 75 86 75 73 63
190 198 195 231 253 305 313 321 296 249 202 199 184 191 176 140 139 147 165 102 103 118 74 72 83 87 73
169 178 214 228 236 299 321 297 288 270 278 218 193 193 177 155 151 150 129 113 121 107 88 67 64 51 43
189 202 183 204 230 283 310 298 270 258 248 241 233 213 171 154 169 127 136 133 103 142 110 75 49 46 48
180 176 161 193 210 236 305 273 252 230 247 256 250 253 205 155 131 151 131 144 137 123 119 97 73 53 48
188 210 172 144 147 188 209 220 243 215 212 259 234 241 215 155 163 94 146 139 171 142 143 129 90 66 60

GFSFLT2_con_3kmhel_102.txt.gz
Helicity
196 144 153 145 135 129 198 193 236 359 579 535 425 287 250 207 178 101 93 81 65 67 68 65 74 73 57
192 175 152 142 136 163 189 215 266 306 365 404 250 233 207 192 141 89 85 74 67 85 88 84 75 62 49
110 145 143 170 191 222 198 209 225 194 207 257 213 191 195 112 87 88 75 59 87 87 100 84 68 61 47
160 174 189 194 199 177 200 242 264 304 241 250 207 166 86 87 98 88 89 57 83 97 88 78 60 54 42
166 216 197 197 222 267 220 288 320 425 382 345 307 239 173 116 121 117 76 62 76 75 74 76 61 49 41
174 162 162 185 183 279 329 415 407 342 465 503 323 283 206 164 128 109 66 64 85 77 75 70 66 63 49
159 163 154 123 186 229 273 314 371 453 497 398 382 332 224 181 124 105 73 71 80 76 71 73 74 75 71
167 146 128 83 110 164 206 259 372 409 459 482 500 502 327 221 92 90 76 75 76 70 61 66 70 80 99
254 215 171 71 79 118 248 315 400 540 461 541 586 480 222 230 205 104 84 70 73 66 64 70 80 111 98
165 202 246 184 60 118 172 256 369 424 583 576 516 394 346 255 232 212 148 81 78 66 64 79 90 104 118
92 100 156 225 186 68 130 260 303 468 415 556 545 505 365 231 274 225 186 159 137 100 64 69 84 102 122
91 80 89 152 178 152 89 147 180 116 316 548 482 555 580 419 339 283 191 188 167 145 123 91 77 101 128
93 94 75 53 123 216 181 166 158 192 129 478 437 455 426 363 343 246 206 175 170 161 195 109 118 122 112
79 62 66 78 54 172 175 178 168 235 304 232 300 279 365 256 248 170 213 194 171 149 172 118 116 97 94
65 63 72 85 79 116 204 130 199 218 280 306 370 329 272 227 232 206 212 218 116 174 163 128 102 67 79
73 88 95 108 99 59 164 157 184 235 279 337 348 352 332 252 249 206 214 213 155 177 148 160 114 70 96
55 69 94 81 105 103 134 163 165 201 251 316 282 238 247 235 230 206 217 175 179 136 135 123 103 95 96

GFSFLT2_con_3kmhel_108.txt.gz
Helicity
140 159 173 157 169 142 156 125 99 57 63 60 40 48 34 47 86 176 256 471 402 378 260 137 138 96 82
47 103 213 212 181 201 133 132 136 134 98 108 62 65 72 68 108 222 427 593 423 334 178 176 127 92 63
73 19 59 118 117 113 94 80 79 77 65 43 54 47 19 58 189 366 498 545 267 281 240 175 130 93 79
19 8 13 40 39 68 62 53 64 60 39 43 22 5 -47 34 218 472 447 382 232 227 248 200 147 95 99
93 80 77 67 29 14 29 47 60 48 46 64 132 138 134 259 444 353 245 205 174 215 199 171 127 67 78
95 96 100 103 109 118 98 82 47 28 52 74 121 175 177 205 200 192 242 228 271 260 215 138 85 91 97
101 105 118 135 121 128 145 131 115 85 55 94 136 173 211 213 200 233 259 264 256 241 159 101 96 91 87
136 122 88 87 81 92 116 128 100 117 110 114 117 149 203 219 166 232 322 298 255 219 162 122 108 95 90
144 151 144 126 116 118 140 138 137 91 96 179 155 156 169 195 223 188 201 266 284 285 185 135 122 100 109
93 84 99 88 84 90 104 137 148 143 104 160 200 214 174 162 195 231 270 218 221 264 206 162 133 174 155
76 84 114 121 114 104 115 142 147 162 143 124 148 278 308 165 102 174 276 305 309 289 178 151 162 197 163
47 29 53 81 86 106 115 119 112 114 119 173 137 185 276 283 239 201 272 320 407 391 366 254 201 177 184
50 34 45 48 41 57 84 92 109 106 113 131 180 172 176 220 245 218 275 342 397 467 440 338 347 315 289
49 37 53 54 38 10 39 93 108 107 119 137 148 166 172 188 204 239 258 297 396 428 442 421 399 288 297
50 41 57 52 44 40 62 82 84 96 108 140 172 138 163 180 200 208 238 322 295 475 559 437 378 376 324
40 31 56 67 64 79 87 110 105 90 100 117 176 192 195 181 174 169 244 289 358 433 549 452 407 341 352
54 47 50 53 62 60 69 97 99 75 92 113 131 153 165 118 145 220 212 321 436 423 449 463 442 379 293

GFSFLT2_con_3kmhel_111.txt.gz
Helicity
192 205 120 116 152 158 147 178 197 154 131 105 76 84 91 96 89 87 69 68 117 152 395 287 196 191 150
110 150 132 198 141 141 150 173 157 157 112 96 85 89 93 103 106 102 64 72 114 170 336 379 272 199 199
13 -40 23 34 106 129 135 143 97 122 136 104 114 93 77 82 88 55 61 73 151 270 355 473 378 274 135
48 77 66 43 44 29 82 80 57 149 128 75 92 76 72 72 61 57 53 64 151 315 492 555 374 202 159
62 69 82 113 126 77 34 43 -19 -6 49 31 48 51 47 70 54 13 -11 96 225 406 605 423 176 182 160
85 94 107 93 104 117 98 31 1 19 -15 17 33 82 89 69 59 41 108 278 485 577 251 175 169 187 164
91 93 100 100 80 92 99 96 94 127 81 36 81 124 131 127 112 114 176 317 204 192 222 218 197 164 139
110 77 74 91 88 86 112 121 110 95 72 68 50 106 142 156 145 105 131 205 206 252 232 215 194 165 137
101 115 120 136 127 87 104 106 105 123 132 126 92 97 141 174 204 170 137 138 191 225 220 213 186 152 132
103 93 61 76 132 100 99 123 127 96 101 128 143 125 104 92 178 222 184 160 177 183 191 209 196 219 190
78 84 74 60 82 103 103 103 126 139 117 111 139 166 164 162 153 228 219 219 204 219 188 194 189 214 224
61 63 50 44 70 107 103 91 87 84 84 102 89 133 150 165 178 163 230 260 278 265 245 210 161 140 161
55 63 72 50 53 85 90 76 75 78 88 89 97 88 102 127 164 183 176 229 258 301 295 283 302 286 247
79 76 48 42 37 50 67 74 82 98 86 99 98 99 95 106 129 164 199 185 208 248 324 313 330 327 291
66 87 76 32 42 55 64 78 84 104 119 112 117 116 113 95 121 146 211 252 200 232 296 332 351 338 302
66 64 56 44 49 66 69 75 75 87 113 118 120 126 104 84 83 123 169 205 273 220 249 290 333 349 285
60 55 55 46 41 53 73 83 84 102 110 112 100 130 126 122 92 93 154 175 206 241 255 271 278 347 339

GFSFLT2_con_3kmhel_114.txt.gz
Helicity
103 85 195 240 172 159 112 79 82 94 139 201 164 212 191 160 170 167 153 160 128 92 79 111 146 264 251
62 37 87 222 246 243 166 150 152 160 105 52 85 99 109 113 135 126 97 111 103 98 92 124 183 270 336
57 50 50 -11 46 13 75 139 180 216 221 197 240 179 179 152 123 82 94 102 125 134 126 150 187 288 329
44 51 50 61 -0 -68 -31 16 110 210 213 213 197 220 156 210 124 121 106 96 80 86 91 123 236 312 393
39 52 41 61 62 57 51 57 -34 -89 62 157 229 151 163 196 141 111 82 59 71 80 66 116 306 415 380
13 33 62 58 60 56 42 18 28 77 -11 -11 -8 60 112 82 140 119 104 110 85 68 80 135 391 482 526
-0 20 24 36 41 56 67 64 65 88 81 -23 38 25 37 48 65 94 98 100 54 26 91 249 425 675 494
68 46 24 38 6 12 42 54 37 71 47 -8 26 37 55 71 94 86 102 122 131 185 315 536 482 244 177
93 102 95 81 73 11 20 21 15 59 88 31 60 49 72 93 89 130 132 127 111 181 170 160 222 224 198
76 80 92 88 65 37 5 17 26 11 34 102 137 54 49 61 138 163 163 147 135 138 118 212 298 279 218
22 26 41 50 59 52 24 27 52 48 76 7 33 91 55 45 87 178 237 217 169 192 175 220 190 234 265
34 24 44 65 64 33 29 53 55 45 55 51 30 71 110 109 82 93 155 250 231 276 257 234 217 166 159
53 43 35 64 65 48 42 29 34 48 48 55 52 69 79 98 104 107 136 220 238 260 317 310 275 256 261
74 60 47 43 51 45 39 37 29 44 49 95 80 61 80 83 82 119 115 158 199 238 300 297 315 298 244
95 67 56 54 44 35 5 7 24 51 86 114 119 68 67 63 94 99 114 116 154 223 300 323 307 297 282
94 76 61 57 47 57 38 18 34 58 81 95 108 96 68 57 40 82 92 106 121 177 248 260 293 290 274
94 67 64 57 41 39 48 45 41 47 82 111 122 114 99 95 67 -16 85 114 133 154 216 248 234 242 249

GFSFLT2_con_3kmhel_117.txt.gz
Helicity
48 27 8 -117 -66 38 134 163 285 388 466 235 160 115 97 160 188 155 153 170 171 175 109 105 123 158 184
31 47 50 41 8 -66 -19 85 186 231 440 200 255 178 141 167 183 151 157 174 166 162 122 89 87 134 191
40 41 26 19 41 36 14 -36 83 263 246 294 319 193 163 222 127 156 133 146 149 148 133 134 119 94 107
34 30 28 39 -8 -19 22 23 -33 67 146 197 297 332 332 280 224 195 166 141 133 137 141 148 129 99 119
5 -0 -8 7 3 3 -17 -34 84 28 -67 -31 76 173 215 237 215 269 320 234 150 137 97 100 100 116 128
-7 -14 -13 -22 -39 -29 -30 -42 -78 1 50 13 -50 6 121 209 278 299 317 262 257 187 114 92 94 76 59
32 15 -6 -13 -39 -59 -47 -53 -39 53 -23 -14 26 24 -44 -46 111 227 213 219 190 179 127 87 60 68 68
85 53 30 30 14 -18 -84 -73 -61 -7 -23 -124 37 52 89 87 5 -16 73 182 225 162 104 109 79 84 76
75 67 67 81 73 24 -2 -63 -100 -52 -27 -151 -59 -57 36 104 121 183 153 134 153 156 84 87 70 104 270
80 74 62 64 60 48 15 -10 -33 -141 -68 -46 -26 -110 -46 65 124 152 219 249 191 217 88 142 241 254 397
61 57 52 58 72 74 57 27 -13 -34 4 -34 -62 16 -60 -0 58 75 92 175 229 186 113 113 141 269 272
88 75 61 56 55 70 51 30 14 -25 6 -12 -51 18 42 61 48 110 104 126 162 197 184 116 98 149 145
111 97 86 71 55 46 52 37 20 8 -3 13 -17 22 28 35 89 96 129 111 171 194 213 228 173 234 272
137 119 92 78 53 55 52 41 23 6 -12 -9 5 14 37 36 48 140 85 116 197 248 240 295 262 288 249
152 119 83 62 49 56 55 43 18 -5 2 25 69 50 52 42 51 90 101 108 142 170 176 221 258 315 303
133 121 89 62 57 46 68 51 33 22 12 45 74 87 52 30 -2 67 93 82 120 160 152 167 170 217 268
131 130 92 72 51 62 55 50 43 46 30 33 64 88 103 103 58 -15 68 66 84 149 155 147 151 136 243

GFSFLT2_con_3kmhel_120.txt.gz
Helicity
62 33 23 9 3 25 4 -5 -5 28 108 134 387 407 488 277 127 118 134 144 191 208 157 146 106 108 176
50 27 18 3 -1 -12 -9 -13 -25 27 78 65 390 373 553 464 396 133 135 167 192 170 129 118 134 121 164
37 25 7 -18 -2 -36 -29 -26 17 74 58 83 109 204 426 480 506 434 310 208 218 190 150 172 163 134 104
46 27 4 -2 -27 -40 -33 -47 -19 16 23 109 117 39 199 418 314 324 336 340 344 151 176 157 148 162 139
36 31 16 -3 -31 -60 -43 -63 -38 -113 -54 -12 38 23 -61 43 174 285 269 263 341 306 274 123 123 140 105
60 47 26 16 4 -18 -47 -67 -111 -73 -74 -5 -23 43 2 -66 35 158 305 349 319 305 295 252 156 122 106
98 78 56 43 27 14 -21 -59 -51 -33 -94 -93 -9 -17 3 72 61 -18 39 161 219 255 287 264 248 154 107
159 126 96 57 41 24 11 1 -32 -39 -76 -161 -54 -99 1 77 94 119 92 49 188 257 226 230 222 191 118
111 107 95 80 60 40 17 0 -16 -50 -46 -188 -119 -100 -31 75 28 130 180 185 120 134 200 257 215 177 111
135 126 100 76 66 65 34 -1 -17 -47 -41 -88 -101 -149 -166 -40 84 44 49 116 227 148 117 172 191 123 101
139 123 102 94 84 78 72 50 15 15 0 -34 -104 -70 -117 -56 2 95 53 72 83 143 196 181 211 71 141
136 130 115 98 94 94 85 82 73 33 23 6 -53 -77 -51 -34 7 76 101 97 82 101 159 238 232 99 153
139 121 122 118 106 95 86 73 61 57 46 33 -14 -48 -75 -52 11 92 88 67 153 122 134 189 230 112 109
128 117 112 106 103 103 85 64 49 48 44 23 0 -52 -49 -58 -27 88 76 83 135 172 147 157 223 295 146
131 117 110 109 110 104 96 73 49 40 43 51 28 -23 -38 -43 -12 54 75 104 110 179 129 138 165 209 239
137 120 135 121 98 94 92 101 64 47 45 50 30 -26 -24 -15 -77 48 86 103 129 159 156 130 147 142 173
147 151 149 119 80 97 84 71 62 61 79 49 21 -19 -17 -3 12 49 69 75 81 127 138 135 150 140 155